KC7O Weather Reports


time (UTC)temp
C
wind
direction
speed
KPH
gust
KPH
rain 1hr
cm
rain 24hr
cm
rain mn
cm
humidity
%
barometer
mb
20260507040915 16 186 0.0 0.0 0.00 0.00 0.00 74 1015.4
20260507040359 16 186 0.0 0.0 0.00 0.00 0.00 73 1015.4
20260507035903 16 186 0.0 0.0 0.00 0.00 0.00 73 1015.3
20260507035350 16 186 0.0 0.0 0.00 0.00 0.00 72 1015.2
20260507034858 16 186 0.0 0.0 0.00 0.00 0.00 72 1015.2
20260507034402 16 186 0.0 0.0 0.00 0.00 0.00 72 1015.1
20260507033925 16 176 0.0 0.0 0.00 0.00 0.00 72 1015.1
20260507033349 16 246 0.0 0.0 0.00 0.00 0.00 72 1015.0
20260507032857 17 246 0.0 0.0 0.00 0.00 0.00 71 1014.9
20260507032403 17 246 0.0 0.0 0.00 0.00 0.00 70 1015.0
20260507031848 17 246 0.0 0.0 0.00 0.00 0.00 70 1014.9
20260507031355 17 246 0.0 0.0 0.00 0.00 0.00 70 1014.9
20260507030857 17 246 0.0 0.0 0.00 0.00 0.00 69 1014.9
20260507030404 17 246 0.0 0.0 0.00 0.00 0.00 69 1014.8
20260507025850 18 246 0.0 0.0 0.00 0.00 0.00 68 1014.8
20260507025355 18 246 0.0 0.0 0.00 0.00 0.00 68 1014.7
20260507024905 18 246 0.0 0.0 0.00 0.00 0.00 68 1014.7
20260507024352 18 246 0.0 1.6 0.00 0.00 0.00 68 1014.7
20260507023918 18 245 0.0 3.2 0.00 0.00 0.00 67 1014.7
20260507023422 18 258 1.6 4.8 0.00 0.00 0.00 67 1014.6
20260507022906 18 242 1.6 4.8 0.00 0.00 0.00 66 1014.5
20260507022353 18 265 0.0 6.4 0.00 0.00 0.00 66 1014.4
20260507021857 18 244 3.2 6.4 0.00 0.00 0.00 65 1014.4
20260507021404 19 261 1.6 4.8 0.00 0.00 0.00 65 1014.3
20260507020921 19 268 0.0 4.8 0.00 0.00 0.00 65 1014.3
20260507020405 19 252 0.0 6.4 0.00 0.00 0.00 64 1014.2
20260507015850 20 231 1.6 6.4 0.00 0.00 0.00 63 1014.2
20260507015356 20 262 1.6 4.8 0.00 0.00 0.00 63 1014.1
20260507014901 20 262 0.0 4.8 0.00 0.00 0.00 63 1014.2
20260507014406 20 250 0.0 6.4 0.00 0.00 0.00 63 1014.2
20260507013850 20 227 1.6 8.0 0.00 0.00 0.00 63 1014.1
20260507012857 21 179 3.2 8.0 0.00 0.00 0.00 62 1014.1
20260507012406 21 151 1.6 8.0 0.00 0.00 0.00 61 1014.0
20260507011851 21 226 3.2 8.0 0.00 0.00 0.00 60 1013.9
20260507011355 21 219 3.2 6.4 0.00 0.00 0.00 59 1013.8
20260507010901 22 231 1.6 6.4 0.00 0.00 0.00 58 1013.8
20260507010406 22 179 3.2 6.4 0.00 0.00 0.00 59 1013.8
20260507005920 22 249 3.2 6.4 0.00 0.00 0.00 59 1013.7
20260507005350 22 216 3.2 6.4 0.00 0.00 0.00 58 1013.7
20260507004930 22 148 1.6 8.0 0.00 0.00 0.00 59 1013.8
20260507004352 22 184 4.8 9.7 0.00 0.00 0.00 59 1013.7
20260507003858 22 279 1.6 11.3 0.00 0.00 0.00 59 1013.9
20260507003403 22 213 4.8 11.3 0.00 0.00 0.00 58 1013.8
20260507002849 22 141 0.0 8.0 0.00 0.00 0.00 59 1013.8
20260507002352 22 260 3.2 9.7 0.00 0.00 0.00 59 1013.8
20260507001857 22 167 3.2 9.7 0.00 0.00 0.00 59 1013.7
20260507001424 22 154 1.6 6.4 0.00 0.00 0.00 59 1013.8
20260507000907 22 184 1.6 4.8 0.00 0.00 0.00 59 1013.7
20260507000354 22 264 0.0 4.8 0.00 0.00 0.00 60 1013.7
20260506235858 22 286 3.2 8.0 0.00 0.00 0.00 59 1013.6
20260506235403 22 256 1.6 9.7 0.00 0.00 0.00 59 1013.7
20260506234849 22 276 1.6 9.7 0.00 0.00 0.00 59 1013.7
20260506234353 22 175 3.2 8.0 0.00 0.00 0.00 60 1013.6
20260506233855 22 266 4.8 8.0 0.00 0.00 0.00 59 1013.6
20260506233353 22 242 3.2 9.7 0.00 0.00 0.00 58 1013.6
20260506232901 22 220 1.6 9.7 0.00 0.00 0.00 59 1013.7
20260506231355 23 160 4.8 14.5 0.00 0.00 0.00 58 1013.6
20260506230902 23 255 4.8 14.5 0.00 0.00 0.00 58 1013.7
20260506225856 23 202 3.2 12.9 0.00 0.00 0.00 57 1013.7
20260506225401 23 216 4.8 12.9 0.00 0.00 0.00 57 1013.7
20260506224902 23 243 6.4 12.9 0.00 0.00 0.00 56 1013.7
20260506224359 23 279 3.2 8.0 0.00 0.00 0.00 55 1013.8
20260506223906 23 185 1.6 9.7 0.00 0.00 0.00 55 1013.8
20260506223408 23 151 4.8 12.9 0.00 0.00 0.00 55 1013.9
20260506222854 23 158 3.2 12.9 0.00 0.00 0.00 55 1013.9
20260506222359 23 262 4.8 12.9 0.00 0.00 0.00 55 1014.0
20260506221904 23 284 1.6 9.7 0.00 0.00 0.00 55 1014.0
20260506221428 23 219 1.6 9.7 0.00 0.00 0.00 55 1014.0
20260506220851 23 236 4.8 11.3 0.00 0.00 0.00 55 1014.2
20260506220358 23 242 3.2 9.7 0.00 0.00 0.00 54 1014.3
20260506215924 23 193 4.8 9.7 0.00 0.00 0.00 54 1014.3
20260506215425 23 267 1.6 9.7 0.00 0.00 0.00 53 1014.3
20260506214849 23 219 3.2 8.0 0.00 0.00 0.00 53 1014.4
20260506214412 23 157 3.2 9.7 0.00 0.00 0.00 53 1014.5
20260506213858 23 138 3.2 9.7 0.00 0.00 0.00 53 1014.6
20260506212857 23 209 1.6 8.0 0.00 0.00 0.00 54 1014.7
20260506212403 23 262 3.2 8.0 0.00 0.00 0.00 55 1014.8
20260506211907 23 265 3.2 12.9 0.00 0.00 0.00 55 1014.8
20260506211412 23 246 6.4 12.9 0.00 0.00 0.00 54 1014.8
20260506210858 23 126 1.6 8.0 0.00 0.00 0.00 54 1014.9
20260506210422 23 249 4.8 9.7 0.00 0.00 0.00 55 1015.0
20260506205907 23 217 3.2 9.7 0.00 0.00 0.00 55 1015.1
20260506205353 23 225 1.6 11.3 0.00 0.00 0.00 55 1015.1
20260506204857 23 208 1.6 11.3 0.00 0.00 0.00 54 1015.2
20260506204402 23 179 4.8 9.7 0.00 0.00 0.00 55 1015.2
20260506203849 23 150 3.2 8.0 0.00 0.00 0.00 55 1015.2
20260506203413 22 162 1.6 9.7 0.00 0.00 0.00 56 1015.3
20260506202855 22 273 3.2 9.7 0.00 0.00 0.00 57 1015.4
20260506202359 22 239 3.2 8.0 0.00 0.00 0.00 56 1015.4
20260506201925 22 179 3.2 11.3 0.00 0.00 0.00 56 1015.4
20260506201348 22 148 3.2 11.3 0.00 0.00 0.00 56 1015.5
20260506200853 22 156 1.6 9.7 0.00 0.00 0.00 59 1015.5
20260506200358 22 236 3.2 9.7 0.00 0.00 0.00 58 1015.8
20260506195903 21 232 4.8 9.7 0.00 0.00 0.00 58 1015.8
20260506195406 21 160 4.8 8.0 0.00 0.00 0.00 57 1015.8
20260506194851 21 1 1.6 8.0 0.00 0.00 0.00 59 1015.9
20260506194355 21 212 3.2 8.0 0.00 0.00 0.00 60 1015.9
20260506193901 21 274 4.8 8.0 0.00 0.00 0.00 58 1016.0
20260506193406 21 266 1.6 8.0 0.00 0.00 0.00 59 1016.0
20260506192856 21 210 3.2 6.4 0.00 0.00 0.00 59 1016.1
20260506192402 21 189 3.2 8.0 0.00 0.00 0.00 59 1016.1
20260506191909 21 173 4.8 8.0 0.00 0.00 0.00 59 1016.2
20260506191351 21 141 4.8 8.0 0.00 0.00 0.00 59 1016.3
20260506190856 21 230 3.2 9.7 0.00 0.00 0.00 59 1016.3
20260506190401 20 199 4.8 9.7 0.00 0.00 0.00 60 1016.4
20260506185927 20 166 1.6 9.7 0.00 0.00 0.00 61 1016.4
20260506185349 20 266 3.2 9.7 0.00 0.00 0.00 61 1016.5
20260506184853 20 149 3.2 6.4 0.00 0.00 0.00 61 1016.5
20260506184357 20 141 0.0 9.7 0.00 0.00 0.00 62 1016.5
20260506183903 20 214 3.2 11.3 0.00 0.00 0.00 62 1016.6
20260506183406 20 120 4.8 11.3 0.00 0.00 0.00 61 1016.6
20260506182853 20 278 1.6 9.7 0.00 0.00 0.00 62 1016.7
20260506182356 20 254 3.2 6.4 0.00 0.00 0.00 62 1016.6
20260506181905 20 283 1.6 8.0 0.00 0.00 0.00 63 1016.7
20260506181350 19 149 1.6 8.0 0.00 0.00 0.00 62 1016.7
20260506180856 20 152 3.2 8.0 0.00 0.00 0.00 61 1016.7
20260506180359 20 143 0.0 6.4 0.00 0.00 0.00 64 1016.7
20260506175926 19 216 0.0 6.4 0.00 0.00 0.00 65 1016.7
20260506175350 19 140 4.8 8.0 0.00 0.00 0.00 64 1016.7
20260506174856 19 144 1.6 8.0 0.00 0.00 0.00 63 1016.7
20260506174400 19 184 3.2 8.0 0.00 0.00 0.00 64 1016.6
20260506173906 19 174 1.6 8.0 0.00 0.00 0.00 64 1016.7
20260506173351 18 291 3.2 8.0 0.00 0.00 0.00 64 1016.7
20260506172857 18 108 1.6 8.0 0.00 0.00 0.00 66 1016.8
20260506172402 18 176 1.6 6.4 0.00 0.00 0.00 66 1016.7
20260506171911 18 133 3.2 6.4 0.00 0.00 0.00 66 1016.8
20260506171354 17 79 3.2 8.0 0.00 0.00 0.00 67 1016.7
20260506170859 18 133 4.8 8.0 0.00 0.00 0.00 67 1016.7
20260506170403 17 147 1.6 8.0 0.00 0.00 0.00 67 1016.6
20260506165907 17 176 3.2 8.0 0.00 0.00 0.00 68 1016.6
20260506165351 17 168 1.6 11.3 0.00 0.00 0.00 69 1016.6
20260506164856 17 135 1.6 11.3 0.00 0.00 0.00 69 1016.6
20260506164401 17 232 3.2 9.7 0.00 0.00 0.00 68 1016.7
20260506163905 17 172 1.6 8.0 0.00 0.00 0.00 70 1016.7
20260506163350 17 168 1.6 8.0 0.00 0.00 0.00 70 1016.7
20260506162854 17 181 3.2 6.4 0.00 0.00 0.00 69 1016.7
20260506162357 17 169 1.6 6.4 0.00 0.00 0.00 70 1016.6
20260506161921 17 183 1.6 4.8 0.00 0.00 0.00 71 1016.6
20260506161407 17 163 0.0 4.8 0.00 0.00 0.00 71 1016.6
20260506160853 16 93 0.0 6.4 0.00 0.00 0.00 72 1016.6
20260506160427 16 155 1.6 6.4 0.00 0.00 0.00 73 1016.7
20260506155406 16 174 0.0 6.4 0.00 0.00 0.00 74 1016.7
20260506154851 16 139 1.6 6.4 0.00 0.00 0.00 73 1016.7
20260506154356 16 179 0.0 6.4 0.00 0.00 0.00 75 1016.6
20260506153902 15 136 0.0 6.4 0.00 0.00 0.00 74 1016.6
20260506153348 15 161 0.0 6.4 0.00 0.00 0.00 76 1016.7
20260506152854 15 163 1.6 6.4 0.00 0.00 0.00 76 1016.7
20260506152358 15 156 0.0 3.2 0.00 0.00 0.00 77 1016.7
20260506151918 15 127 0.0 3.2 0.00 0.00 0.00 77 1016.7
20260506151359 15 172 1.6 3.2 0.00 0.00 0.00 76 1016.7
20260506150906 15 146 0.0 3.2 0.00 0.00 0.00 76 1016.8
20260506150351 15 162 0.0 6.4 0.00 0.00 0.00 78 1016.8
20260506145854 15 158 0.0 6.4 0.00 0.00 0.00 78 1016.7
20260506145358 15 134 0.0 0.0 0.00 0.00 0.00 78 1016.7
20260506144903 15 153 0.0 4.8 0.00 0.00 0.00 79 1016.7
20260506144352 15 209 0.0 4.8 0.00 0.00 0.00 77 1016.8
20260506143856 15 140 0.0 3.2 0.00 0.00 0.00 77 1016.7
20260506143400 15 101 0.0 1.6 0.00 0.00 0.00 77 1016.8
20260506142920 15 60 0.0 1.6 0.00 0.00 0.00 77 1016.8
20260506142353 14 141 0.0 0.0 0.00 0.00 0.00 77 1016.7
20260506141851 14 142 0.0 0.0 0.00 0.00 0.00 78 1016.7
20260506141353 13 84 0.0 0.0 0.00 0.00 0.00 77 1016.7
20260506140901 13 81 0.0 0.0 0.00 0.00 0.00 78 1016.6
20260506140407 13 81 0.0 0.0 0.00 0.00 0.00 80 1016.5
20260506135852 12 81 0.0 0.0 0.00 0.00 0.00 83 1016.5
20260506135356 12 48 0.0 0.0 0.00 0.00 0.00 84 1016.4
20260506134900 11 48 0.0 0.0 0.00 0.00 0.00 85 1016.4
20260506133900 11 48 0.0 0.0 0.00 0.00 0.00 87 1016.3
20260506133352 10 48 0.0 0.0 0.00 0.00 0.00 88 1016.3
20260506132859 10 48 0.0 0.0 0.00 0.00 0.00 88 1016.3
20260506132403 10 48 0.0 0.0 0.00 0.00 0.00 88 1016.3
20260506131854 10 48 0.0 0.0 0.00 0.00 0.00 88 1016.1
20260506131359 10 48 0.0 0.0 0.00 0.00 0.00 88 1016.1
20260506130904 10 48 0.0 0.0 0.00 0.00 0.00 89 1016.1
20260506130348 10 49 0.0 0.0 0.00 0.00 0.00 90 1016.1
20260506125856 9 49 0.0 0.0 0.00 0.00 0.00 90 1016.0
20260506125359 9 49 0.0 0.0 0.00 0.00 0.00 90 1016.0
20260506124903 9 49 0.0 0.0 0.00 0.00 0.00 89 1016.1
20260506124406 9 49 0.0 0.0 0.00 0.00 0.00 89 1016.0
20260506123911 9 49 0.0 0.0 0.00 0.00 0.00 90 1015.9
20260506123355 9 49 0.0 0.0 0.00 0.00 0.00 89 1015.9
20260506122900 9 49 0.0 0.0 0.00 0.00 0.00 89 1015.8
20260506122404 9 49 0.0 0.0 0.00 0.00 0.00 89 1015.8
20260506121855 10 49 0.0 0.0 0.00 0.00 0.00 89 1015.8
20260506121420 10 49 0.0 0.0 0.00 0.00 0.00 89 1015.7
20260506120924 10 49 0.0 0.0 0.00 0.00 0.00 89 1015.6
20260506120403 10 49 0.0 0.0 0.00 0.00 0.00 89 1015.5
20260506115907 10 49 0.0 0.0 0.00 0.00 0.00 89 1015.5
20260506115411 10 49 0.0 0.0 0.00 0.00 0.00 89 1015.5
20260506114855 10 49 0.0 0.0 0.00 0.00 0.00 89 1015.5
20260506114401 10 49 0.0 0.0 0.00 0.00 0.00 89 1015.5
20260506113906 10 49 0.0 0.0 0.00 0.00 0.00 88 1015.5
20260506113350 10 49 0.0 0.0 0.00 0.00 0.00 88 1015.5
20260506112856 10 49 0.0 0.0 0.00 0.00 0.00 88 1015.5
20260506112402 10 49 0.0 0.0 0.00 0.00 0.00 87 1015.4
20260506111907 10 49 0.0 0.0 0.00 0.00 0.00 88 1015.4
20260506111356 10 49 0.0 0.0 0.00 0.00 0.00 87 1015.4
20260506110900 10 49 0.0 0.0 0.00 0.00 0.00 87 1015.5
20260506110405 10 49 0.0 0.0 0.00 0.00 0.00 87 1015.4
20260506105928 10 49 0.0 0.0 0.00 0.00 0.00 86 1015.4
20260506105354 10 49 0.0 0.0 0.00 0.00 0.00 86 1015.4
20260506104859 10 49 0.0 0.0 0.00 0.00 0.00 86 1015.4
20260506104426 10 49 0.0 0.0 0.00 0.00 0.00 86 1015.4
20260506103849 10 49 0.0 0.0 0.00 0.00 0.00 86 1015.4
20260506103356 10 49 0.0 0.0 0.00 0.00 0.00 85 1015.5
20260506102902 10 49 0.0 0.0 0.00 0.00 0.00 85 1015.5
20260506102348 10 49 0.0 0.0 0.00 0.00 0.00 85 1015.5
20260506101853 10 49 0.0 0.0 0.00 0.00 0.00 85 1015.5
20260506101400 10 49 0.0 0.0 0.00 0.00 0.00 85 1015.4
20260506100851 10 49 0.0 0.0 0.00 0.00 0.00 85 1015.4
20260506100355 10 49 0.0 0.0 0.00 0.00 0.00 85 1015.5
20260506095901 10 49 0.0 0.0 0.00 0.00 0.00 85 1015.5
20260506095426 10 49 0.0 0.0 0.00 0.00 0.00 85 1015.5
20260506094851 10 49 0.0 0.0 0.00 0.00 0.00 85 1015.5
20260506094357 10 49 0.0 0.0 0.00 0.00 0.00 84 1015.5
20260506093924 10 49 0.0 0.0 0.00 0.00 0.00 84 1015.5
20260506093349 10 49 0.0 0.0 0.00 0.00 0.00 84 1015.5
20260506092854 10 49 0.0 0.0 0.00 0.00 0.00 84 1015.5
20260506092401 10 49 0.0 0.0 0.00 0.00 0.00 84 1015.5
20260506091926 10 49 0.0 0.0 0.00 0.00 0.00 84 1015.5
20260506091352 10 91 0.0 0.0 0.00 0.00 0.00 84 1015.5
20260506090918 10 91 0.0 0.0 0.00 0.00 0.00 83 1015.7
20260506090402 10 91 0.0 0.0 0.00 0.00 0.00 83 1015.8
20260506085910 10 91 0.0 0.0 0.00 0.00 0.00 82 1015.8
20260506085355 11 91 0.0 0.0 0.00 0.00 0.00 82 1015.9
20260506084901 11 91 0.0 0.0 0.00 0.00 0.00 82 1015.9
20260506084348 11 91 0.0 0.0 0.00 0.00 0.00 82 1015.9
20260506083853 11 91 0.0 0.0 0.00 0.00 0.00 81 1016.0
20260506083358 11 91 0.0 0.0 0.00 0.00 0.00 81 1015.9
20260506082901 11 91 0.0 0.0 0.00 0.00 0.00 81 1016.0
20260506082427 11 92 0.0 0.0 0.00 0.00 0.00 81 1015.9
20260506081849 11 92 0.0 0.0 0.00 0.00 0.00 80 1016.0
20260506081354 11 94 0.0 0.0 0.00 0.00 0.00 80 1016.0
20260506080918 12 94 0.0 0.0 0.00 0.00 0.00 79 1016.0
20260506080359 12 94 0.0 0.0 0.00 0.00 0.00 78 1016.0
20260506073348 12 341 0.0 0.0 0.00 0.00 0.00 78 1016.1
20260506072852 12 341 0.0 1.6 0.00 0.00 0.00 78 1016.1
20260506072357 12 255 0.0 1.6 0.00 0.00 0.00 78 1016.1
20260506071900 12 255 0.0 0.0 0.00 0.00 0.00 78 1016.1
20260506071405 12 255 0.0 1.6 0.00 0.00 0.00 78 1016.0
20260506070851 12 255 0.0 1.6 0.00 0.00 0.00 79 1016.0
20260506070357 12 255 0.0 0.0 0.00 0.00 0.00 80 1015.9
20260506062402 12 255 0.0 0.0 0.00 0.00 0.00 79 1015.4
20260506061904 12 255 0.0 0.0 0.00 0.00 0.00 79 1015.4
20260506061422 12 255 0.0 0.0 0.00 0.00 0.00 79 1015.3
20260506060925 12 255 0.0 0.0 0.00 0.00 0.00 79 1015.3
20260506060354 12 255 0.0 0.0 0.00 0.00 0.00 79 1015.3
20260506051402 12 255 0.0 0.0 0.00 0.00 0.00 79 1015.1
20260506050905 12 255 0.0 0.0 0.00 0.00 0.00 79 1015.0
20260506050351 12 255 0.0 0.0 0.00 0.00 0.00 78 1015.0
20260506044847 12 255 0.0 0.0 0.00 0.00 0.00 79 1014.8
20260506044354 12 255 0.0 0.0 0.00 0.00 0.00 79 1014.8
20260506043858 12 255 0.0 0.0 0.00 0.00 0.00 79 1014.7
20260506043402 12 255 0.0 0.0 0.00 0.00 0.00 79 1014.7
20260506042906 12 255 0.0 0.0 0.00 0.00 0.00 78 1014.6
20260506042410 12 255 0.0 0.0 0.00 0.00 0.00 78 1014.5
20260506041851 12 255 0.0 0.0 0.00 0.00 0.00 78 1014.4
20260506041417 12 255 0.0 0.0 0.00 0.00 0.00 78 1014.3